WBANNO,USDM_WEEK,LONGITUDE,LATITUDE,SMVWC_5_CM_MEAN,SMANOM_5_CM_MEAN,SMPERC_5_CM_30COUNTS,SMPERC_5_CM_70COUNTS,SMVWC_10_CM_MEAN,SMANOM_10_CM_MEAN,SMPERC_10_CM_30COUNTS,SMPERC_10_CM_70COUNTS,SMVWC_20_CM_MEAN,SMANOM_20_CM_MEAN,SMPERC_20_CM_30COUNTS,SMPERC_20_CM_70COUNTS,SMVWC_50_CM_MEAN,SMANOM_50_CM_MEAN,SMPERC_50_CM_30COUNTS,SMPERC_50_CM_70COUNTS,SMVWC_100_CM_MEAN,SMANOM_100_CM_MEAN,SMPERC_100_CM_30COUNTS,SMPERC_100_CM_70COUNTS,SMVWC_TOP_CM_MEAN,SMANOM_TOP_CM_MEAN,SMPERC_TOP_CM_30COUNTS,SMPERC_TOP_CM_70COUNTS,SMVWC_COLUMN_CM_MEAN,SMANOM_COLUMN_CM_MEAN,SMPERC_COLUMN_CM_30COUNTS,SMPERC_COLUMN_CM_70COUNTS
53152,20110301,-119.88,34.41,,,,,,,,,,,,,,,,,,,,,,,,,,,,
53152,20110302,-119.88,34.41,,,,,,,,,,,,,,,,,,,,,,,,,,,,
53152,20110303,-119.88,34.41,,,,,,,,,,,,,,,,,,,,,,,,,,,,
53152,20110304,-119.88,34.41,,,,,,,,,,,,,,,,,,,,,,,,,,,,
53152,20110305,-119.88,34.41,,,,,,,,,,,,,,,,,,,,,,,,,,,,
53152,20110306,-119.88,34.41,,,,,,,,,,,,,,,,,,,,,,,,,,,,
53152,20110307,-119.88,34.41,0.385,1.21,0,1,0.316,0.85,0,1,0.34,1.17,0,1,0.49,0.66,0,1,,,,,0.35,1.05,0,1,,,,
53152,20110308,-119.88,34.41,0.384,1.18,0,1,0.316,0.84,0,1,0.34,1.16,0,1,0.491,0.66,0,1,,,,,0.35,1.03,0,1,,,,
53152,20110309,-119.88,34.41,0.383,1.15,0,1,0.316,0.82,0,1,0.34,1.14,0,1,0.493,0.67,0,1,,,,,0.349,1,0,1,,,,
53152,20110310,-119.88,34.41,0.381,1.12,0,1,0.315,0.8,0,1,0.34,1.11,0,1,0.492,0.66,0,1,,,,,0.348,0.97,0,1,,,,
53152,20110311,-119.88,34.41,0.38,1.08,0,1,0.314,0.77,0,1,0.34,1.09,0,1,0.49,0.63,0,1,,,,,0.347,0.94,0,1,,,,
53152,20110312,-119.88,34.41,0.378,1.05,0,1,0.314,0.75,0,1,0.34,1.07,0,1,0.488,0.61,0,1,,,,,0.346,0.91,0,1,,,,
53152,20110313,-119.88,34.41,0.376,1.02,0,1,0.313,0.72,0,1,0.34,1.04,0,1,0.486,0.59,0,1,,,,,0.344,0.88,0,1,,,,
53152,20110314,-119.88,34.41,0.374,0.98,0,1,0.312,0.7,0,1,0.34,1.02,0,1,0.485,0.57,0,1,,,,,0.343,0.86,0,1,,,,
53152,20110315,-119.88,34.41,0.373,0.95,0,1,0.311,0.68,0,1,0.34,1,0,1,0.484,0.54,0,1,,,,,0.342,0.83,0,1,,,,
53152,20110316,-119.88,34.41,0.371,0.92,0,1,0.31,0.65,0,1,0.34,0.99,0,1,0.484,0.53,0,1,,,,,0.34,0.8,0,1,,,,
53152,20110317,-119.88,34.41,0.368,0.88,0,1,0.309,0.63,0,0.976,0.34,0.98,0,1,0.485,0.52,0,1,,,,,0.339,0.76,0,1,,,,
53152,20110318,-119.88,34.41,0.365,0.85,0,1,0.307,0.6,0,0.833,0.339,0.97,0,1,0.486,0.51,0,1,,,,,0.336,0.73,0,1,,,,
53152,20110319,-119.88,34.41,0.361,0.82,0,1,0.304,0.57,0,0.69,0.339,0.96,0,1,0.486,0.5,0,1,,,,,0.333,0.7,0,1,,,,
53152,20110320,-119.88,34.41,0.359,0.8,0,1,0.302,0.55,0,0.601,0.338,0.96,0,1,0.488,0.5,0,1,,,,,0.331,0.69,0,1,,,,
53152,20110321,-119.88,34.41,0.36,0.82,0,1,0.303,0.55,0,0.601,0.339,0.99,0,1,0.491,0.51,0,1,,,,,0.332,0.7,0,1,,,,
53152,20110322,-119.88,34.41,0.362,0.85,0,1,0.305,0.56,0,0.601,0.34,1.02,0,1,0.494,0.53,0,1,,,,,0.333,0.72,0,1,,,,
53152,20110323,-119.88,34.41,0.364,0.88,0,1,0.306,0.58,0,0.601,0.342,1.06,0,1,0.497,0.56,0,1,,,,,0.335,0.75,0,1,,,,
53152,20110324,-119.88,34.41,0.367,0.93,0,1,0.309,0.61,0,0.625,0.345,1.11,0,1,0.499,0.58,0,1,,,,,0.338,0.79,0,1,,,,
53152,20110325,-119.88,34.41,0.372,0.98,0,1,0.312,0.65,0,0.768,0.347,1.16,0,1,0.502,0.6,0,1,,,,,0.342,0.84,0,1,,,,
53152,20110326,-119.88,34.41,0.377,1.04,0,1,0.316,0.7,0,0.911,0.351,1.22,0,1,0.505,0.62,0,1,,,,,0.347,0.9,0,1,,,,
53152,20110327,-119.88,34.41,0.381,1.08,0,1,0.319,0.74,0,1,0.354,1.28,0,1,0.507,0.64,0,1,,,,,0.35,0.94,0,1,,,,
53152,20110328,-119.88,34.41,0.381,1.11,0,1,0.32,0.76,0,1,0.356,1.32,0,1,0.507,0.64,0,1,,,,,0.35,0.96,0,1,,,,
53152,20110329,-119.88,34.41,0.38,1.14,0,1,0.32,0.78,0,1,0.356,1.35,0,1,0.507,0.65,0,1,,,,,0.35,0.98,0,1,,,,
53152,20110330,-119.88,34.41,0.38,1.16,0,1,0.319,0.8,0,1,0.357,1.38,0,1,0.508,0.66,0,1,,,,,0.35,1,0,1,,,,
53152,20110331,-119.88,34.41,0.379,1.18,0,1,0.319,0.81,0,1,0.357,1.4,0,1,0.508,0.66,0,1,,,,,0.349,1.02,0,1,,,,
53152,20110401,-119.88,34.41,0.377,1.2,0,1,0.318,0.82,0,1,0.356,1.42,0,1,0.508,0.66,0,1,,,,,0.347,1.03,0,1,,,,
53152,20110402,-119.88,34.41,0.375,1.21,0,1,0.316,0.84,0,1,0.356,1.44,0,1,0.509,0.67,0,1,,,,,0.346,1.05,0,1,,,,
53152,20110403,-119.88,34.41,0.373,1.23,0,1,0.315,0.85,0,1,0.355,1.46,0,1,0.509,0.68,0,1,,,,,0.344,1.07,0,1,,,,
53152,20110404,-119.88,34.41,0.372,1.25,0,1,0.314,0.87,0,1,0.354,1.49,0,1,0.51,0.68,0,1,,,,,0.343,1.09,0,1,,,,
53152,20110405,-119.88,34.41,0.37,1.27,0,1,0.313,0.89,0,1,0.354,1.51,0,1,0.51,0.69,0,1,,,,,0.341,1.11,0,1,,,,
53152,20110406,-119.88,34.41,0.367,1.29,0,1,0.312,0.91,0,1,0.353,1.53,0,1,0.511,0.7,0,1,,,,,0.34,1.14,0,1,,,,
53152,20110407,-119.88,34.41,0.365,1.32,0,1,0.31,0.93,0,1,0.352,1.55,0,1,0.511,0.7,0,1,,,,,0.338,1.16,0,1,,,,
53152,20110408,-119.88,34.41,0.362,1.34,0,1,0.308,0.94,0,1,0.35,1.56,0,1,0.511,0.71,0,1,,,,,0.335,1.18,0,1,,,,
53152,20110409,-119.88,34.41,0.358,1.36,0,1,0.305,0.96,0,1,0.348,1.57,0,1,0.51,0.71,0,1,,,,,0.331,1.2,0,1,,,,
53152,20110410,-119.88,34.41,0.352,1.36,0,1,0.301,0.96,0,1,0.345,1.56,0,1,0.508,0.71,0,1,,,,,0.327,1.2,0,1,,,,
53152,20110411,-119.88,34.41,0.345,1.36,0,1,0.296,0.96,0,1,0.342,1.55,0,1,0.506,0.7,0,1,,,,,0.321,1.2,0,1,,,,
53152,20110412,-119.88,34.41,0.337,1.35,0,1,0.29,0.96,0,1,0.338,1.53,0,1,0.503,0.69,0,1,,,,,0.314,1.19,0,1,,,,
53152,20110413,-119.88,34.41,0.328,1.33,0,1,0.284,0.95,0,1,0.334,1.51,0,1,0.501,0.69,0,1,,,,,0.306,1.18,0,1,,,,
53152,20110414,-119.88,34.41,0.317,1.3,0,1,0.277,0.95,0,1,0.33,1.49,0,1,0.499,0.69,0,1,,,,,0.297,1.17,0,1,,,,
53152,20110415,-119.88,34.41,0.305,1.26,0,1,0.27,0.94,0,1,0.326,1.46,0,1,0.497,0.68,0,1,,,,,0.288,1.14,0,1,,,,
53152,20110416,-119.88,34.41,0.291,1.21,0,1,0.263,0.92,0,1,0.321,1.44,0,1,0.495,0.68,0,1,,,,,0.277,1.1,0,1,,,,
53152,20110417,-119.88,34.41,0.276,1.15,0,1,0.255,0.9,0,1,0.317,1.41,0,1,0.496,0.7,0,1,,,,,0.266,1.06,0,1,,,,
53152,20110418,-119.88,34.41,0.261,1.09,0,1,0.248,0.88,0,1,0.312,1.38,0,1,0.496,0.72,0,1,,,,,0.254,1.02,0,1,,,,
53152,20110419,-119.88,34.41,0.246,1.03,0,1,0.24,0.85,0,1,0.308,1.35,0,1,0.496,0.74,0,1,,,,,0.243,0.97,0,1,,,,
53152,20110420,-119.88,34.41,0.231,0.98,0,1,0.232,0.82,0,1,0.303,1.32,0,1,0.496,0.76,0,1,,,,,0.231,0.92,0,1,,,,
53152,20110421,-119.88,34.41,0.217,0.94,0,1,0.224,0.79,0,1,0.298,1.29,0,1,0.495,0.78,0,1,,,,,0.221,0.88,0,1,,,,
53152,20110422,-119.88,34.41,0.205,0.9,0,1,0.217,0.76,0,1,0.293,1.26,0,1,0.495,0.81,0,1,,,,,0.211,0.84,0,1,,,,
53152,20110423,-119.88,34.41,0.194,0.88,0,1,0.21,0.74,0,1,0.287,1.23,0,1,0.495,0.84,0,1,,,,,0.202,0.81,0,1,,,,
53152,20110424,-119.88,34.41,0.185,0.87,0,1,0.204,0.73,0,1,0.282,1.22,0,1,0.494,0.87,0,1,,,,,0.194,0.79,0,1,,,,
53152,20110425,-119.88,34.41,0.177,0.85,0,1,0.198,0.72,0,1,0.277,1.2,0,1,0.493,0.9,0,1,,,,,0.187,0.78,0,1,,,,
53152,20110426,-119.88,34.41,0.169,0.84,0,1,0.192,0.71,0,1,0.271,1.18,0,1,0.492,0.93,0,1,,,,,0.181,0.77,0,1,,,,
53152,20110427,-119.88,34.41,0.162,0.81,0,1,0.186,0.7,0,0.994,0.265,1.16,0,1,0.49,0.96,0,1,,,,,0.174,0.75,0,1,,,,
53152,20110428,-119.88,34.41,0.155,0.79,0,1,0.181,0.69,0,0.935,0.259,1.14,0,1,0.489,0.99,0,1,,,,,0.168,0.74,0,1,,,,
53152,20110429,-119.88,34.41,0.148,0.76,0,1,0.175,0.68,0,0.833,0.253,1.12,0,1,0.487,1.01,0,1,,,,,0.162,0.72,0,1,,,,
53152,20110430,-119.88,34.41,0.142,0.73,0,1,0.169,0.66,0,0.762,0.247,1.09,0,1,0.486,1.03,0,1,,,,,0.156,0.7,0,0.994,,,,
53152,20110501,-119.88,34.41,0.135,0.7,0,0.976,0.164,0.65,0,0.637,0.24,1.06,0,1,0.484,1.05,0,1,,,,,0.15,0.68,0,0.952,,,,
53152,20110502,-119.88,34.41,0.129,0.66,0,0.917,0.159,0.63,0,0.5,0.233,1.04,0,1,0.482,1.07,0,1,,,,,0.144,0.65,0,0.881,,,,
53152,20110503,-119.88,34.41,0.124,0.63,0,0.798,0.154,0.62,0,0.399,0.227,1.02,0,1,0.478,1.07,0,1,,,,,0.139,0.62,0,0.81,,,,
53152,20110504,-119.88,34.41,0.119,0.6,0,0.667,0.15,0.62,0,0.387,0.221,1.01,0,1,0.474,1.05,0,1,,,,,0.134,0.61,0,0.78,,,,
53152,20110505,-119.88,34.41,0.114,0.58,0,0.554,0.147,0.63,0,0.423,0.215,1,0,1,0.468,1.03,0,1,,,,,0.131,0.59,0,0.708,,,,
53152,20110506,-119.88,34.41,0.111,0.56,0,0.423,0.144,0.63,0,0.476,0.211,1,0,1,0.461,0.99,0,1,,,,,0.127,0.58,0,0.577,,,,
53152,20110507,-119.88,34.41,0.107,0.54,0,0.327,0.141,0.63,0,0.488,0.206,1,0,1,0.454,0.95,0,1,,,,,0.124,0.57,0,0.494,,,,
53152,20110508,-119.88,34.41,0.105,0.53,0,0.244,0.139,0.63,0,0.542,0.203,1.01,0,1,0.445,0.9,0,1,,,,,0.122,0.57,0,0.429,,,,
53152,20110509,-119.88,34.41,0.103,0.53,0,0.208,0.137,0.64,0,0.643,0.2,1.02,0,1,0.436,0.85,0,1,,,,,0.12,0.57,0,0.429,,,,
53152,20110510,-119.88,34.41,0.101,0.53,0,0.229,0.136,0.64,0,0.705,0.197,1.03,0,1,0.427,0.8,0,1,,,,,0.118,0.57,0,0.392,,,,
53152,20110511,-119.88,34.41,0.099,0.53,0,0.241,0.134,0.64,0,0.687,0.195,1.04,0,1,0.419,0.75,0,1,,,,,0.116,0.56,0,0.343,,,,
53152,20110512,-119.88,34.41,0.097,0.53,0,0.229,0.133,0.64,0,0.681,0.193,1.05,0,1,0.411,0.71,0,1,,,,,0.115,0.56,0,0.295,,,,
53152,20110513,-119.88,34.41,0.095,0.52,0,0.223,0.131,0.64,0,0.687,0.191,1.05,0,1,0.404,0.67,0,1,,,,,0.113,0.56,0,0.295,,,,
53152,20110514,-119.88,34.41,0.094,0.52,0,0.181,0.13,0.64,0,0.711,0.189,1.04,0,1,0.397,0.63,0,1,,,,,0.112,0.55,0,0.241,,,,
53152,20110515,-119.88,34.41,0.092,0.51,0,0.151,0.129,0.64,0,0.669,0.187,1.03,0,1,0.391,0.61,0,1,,,,,0.111,0.54,0,0.205,,,,
53152,20110516,-119.88,34.41,0.092,0.53,0,0.229,0.128,0.63,0,0.59,0.186,1.01,0,1,0.386,0.58,0,1,,,,,0.11,0.55,0,0.253,,,,
53152,20110517,-119.88,34.41,0.093,0.58,0,0.327,0.127,0.62,0,0.5,0.184,0.99,0,1,0.382,0.56,0,1,,,,,0.11,0.58,0,0.363,,,,
53152,20110518,-119.88,34.41,0.098,0.74,0,0.443,0.126,0.6,0,0.407,0.183,0.98,0,1,0.378,0.55,0,1,,,,,0.112,0.67,0,0.437,,,,
53152,20110519,-119.88,34.41,0.105,0.94,0,0.569,0.125,0.59,0,0.311,0.182,0.97,0,1,0.374,0.53,0,1,,,,,0.115,0.78,0,0.557,,,,
53152,20110520,-119.88,34.41,0.11,1.1,0,0.705,0.125,0.59,0,0.331,0.181,0.96,0,1,0.371,0.52,0,1,,,,,0.117,0.88,0,0.687,,,,
53152,20110521,-119.88,34.41,0.115,1.24,0,0.843,0.124,0.59,0,0.367,0.18,0.96,0,1,0.368,0.51,0,1,,,,,0.12,0.98,0,0.831,,,,
53152,20110522,-119.88,34.41,0.119,1.37,0,0.982,0.124,0.6,0,0.482,0.18,0.96,0,1,0.366,0.5,0,1,,,,,0.122,1.07,0,0.976,,,,
53152,20110523,-119.88,34.41,0.122,1.45,0,1,0.125,0.62,0,0.596,0.179,0.97,0,1,0.363,0.49,0,1,,,,,0.123,1.13,0,1,,,,
53152,20110524,-119.88,34.41,0.122,1.48,0,1,0.125,0.64,0,0.729,0.179,0.98,0,1,0.361,0.48,0,1,,,,,0.123,1.16,0,1,,,,
53152,20110525,-119.88,34.41,0.118,1.38,0,1,0.125,0.65,0,0.856,0.179,0.98,0,1,0.359,0.47,0,1,,,,,0.121,1.12,0,1,,,,
53152,20110526,-119.88,34.41,0.112,1.25,0,1,0.125,0.67,0,0.982,0.179,0.98,0,1,0.357,0.45,0,1,,,,,0.119,1.05,0,1,,,,
53152,20110527,-119.88,34.41,0.107,1.15,0,1,0.126,0.68,0,1,0.178,0.96,0,1,0.355,0.44,0,1,,,,,0.117,0.99,0,1,,,,
53152,20110528,-119.88,34.41,0.103,1.06,0,1,0.125,0.69,0,1,0.178,0.95,0,1,0.353,0.43,0,1,,,,,0.114,0.94,0,1,,,,
53152,20110529,-119.88,34.41,0.1,0.99,0,1,0.125,0.68,0,1,0.177,0.92,0,1,0.351,0.41,0,1,,,,,0.112,0.89,0,1,,,,
53152,20110530,-119.88,34.41,0.097,0.93,0,1,0.125,0.67,0,1,0.176,0.88,0,1,0.349,0.4,0,1,,,,,0.111,0.84,0,1,,,,
53152,20110531,-119.88,34.41,0.094,0.89,0,1,0.124,0.65,0,1,0.175,0.84,0,1,0.346,0.37,0,1,,,,,0.109,0.81,0,1,,,,
53152,20110601,-119.88,34.41,0.091,0.85,0,1,0.123,0.63,0,0.994,0.174,0.8,0,1,0.343,0.35,0,0.994,,,,,0.107,0.77,0,1,,,,
53152,20110602,-119.88,34.41,0.089,0.82,0,1,0.122,0.61,0,0.994,0.173,0.76,0,1,0.34,0.32,0,0.958,,,,,0.106,0.74,0,1,,,,
53152,20110603,-119.88,34.41,0.087,0.78,0,1,0.121,0.59,0,0.97,0.172,0.72,0,1,0.337,0.3,0,0.923,,,,,0.104,0.71,0,1,,,,
53152,20110604,-119.88,34.41,0.085,0.75,0,1,0.12,0.56,0,0.929,0.171,0.68,0,1,0.334,0.27,0,0.887,,,,,0.103,0.68,0,1,,,,
53152,20110605,-119.88,34.41,0.083,0.72,0,0.982,0.119,0.53,0,0.81,0.17,0.64,0,1,0.331,0.24,0,0.81,,,,,0.101,0.66,0,0.952,,,,
53152,20110606,-119.88,34.41,0.102,1.31,0,0.982,0.125,0.78,0,0.768,0.169,0.61,0,1,0.332,0.26,0,0.792,,,,,0.113,1.11,0,0.952,,,,
53152,20110607,-119.88,34.41,0.127,2.09,0,0.982,0.139,1.42,0,0.768,0.169,0.61,0,1,0.334,0.27,0,0.792,,,,,0.133,1.85,0,0.952,,,,
53152,20110608,-119.88,34.41,0.15,2.81,0,0.982,0.154,2.08,0,0.774,0.17,0.66,0,1,0.335,0.29,0,0.798,,,,,0.152,2.55,0,0.952,,,,
53152,20110609,-119.88,34.41,0.171,3.47,0,0.982,0.168,2.71,0,0.774,0.173,0.76,0,1,0.336,0.3,0,0.833,,,,,0.17,3.21,0,0.952,,,,
53152,20110610,-119.88,34.41,0.191,4.1,0,0.982,0.181,3.33,0,0.798,0.176,0.88,0,1,0.337,0.32,0,0.869,,,,,0.186,3.85,0,0.952,,,,
53152,20110611,-119.88,34.41,0.21,4.69,0,0.982,0.194,3.94,0,0.839,0.18,1.02,0,1,0.338,0.34,0,0.905,,,,,0.202,4.46,0,0.952,,,,
53152,20110612,-119.88,34.41,0.228,5.27,0,1,0.207,4.55,0,0.958,0.185,1.18,0,1,0.34,0.36,0,0.982,,,,,0.217,5.06,0,1,,,,
53152,20110613,-119.88,34.41,0.224,5.2,0,1,0.212,4.86,0,1,0.189,1.34,0,1,0.338,0.34,0,1,,,,,0.218,5.15,0,1,,,,
53152,20110614,-119.88,34.41,0.213,4.91,0,1,0.208,4.8,0,1,0.193,1.49,0,1,0.336,0.32,0,1,,,,,0.211,4.94,0,1,,,,
53152,20110615,-119.88,34.41,0.204,4.67,0,1,0.204,4.73,0,1,0.195,1.59,0,1,0.334,0.31,0,1,,,,,0.204,4.74,0,1,,,,
53152,20110616,-119.88,34.41,0.196,4.46,0,1,0.199,4.68,0,1,0.197,1.66,0,1,0.334,0.31,0,1,,,,,0.198,4.56,0,1,,,,
53152,20110617,-119.88,34.41,0.188,4.27,0,1,0.195,4.65,0,1,0.198,1.71,0,1,0.333,0.3,0,1,,,,,0.192,4.4,0,1,,,,
53152,20110618,-119.88,34.41,0.181,4.09,0,1,0.191,4.61,0,1,0.198,1.74,0,1,0.333,0.3,0,1,,,,,0.186,4.24,0,1,,,,
53152,20110619,-119.88,34.41,0.175,3.92,0,1,0.187,4.57,0,1,0.198,1.76,0,1,0.332,0.3,0,1,,,,,0.181,4.09,0,1,,,,
53152,20110620,-119.88,34.41,0.168,3.76,0,1,0.183,4.52,0,1,0.197,1.78,0,1,0.332,0.3,0,1,,,,,0.175,3.94,0,1,,,,
53152,20110621,-119.88,34.41,0.162,3.61,0,1,0.179,4.44,0,1,0.197,1.78,0,1,0.332,0.3,0,1,,,,,0.17,3.81,0,1,,,,
53152,20110622,-119.88,34.41,0.156,3.47,0,1,0.175,4.33,0,1,0.196,1.78,0,1,0.332,0.31,0,1,,,,,0.165,3.69,0,1,,,,
53152,20110623,-119.88,34.41,0.15,3.35,0,1,0.171,4.21,0,1,0.195,1.76,0,1,0.332,0.31,0,1,,,,,0.161,3.57,0,1,,,,
53152,20110624,-119.88,34.41,0.145,3.25,0,1,0.167,4.08,0,1,0.194,1.74,0,1,0.331,0.31,0,1,,,,,0.156,3.45,0,1,,,,
53152,20110625,-119.88,34.41,0.14,3.15,0,1,0.164,3.94,0,1,0.192,1.71,0,1,0.331,0.31,0,1,,,,,0.152,3.33,0,1,,,,
53152,20110626,-119.88,34.41,0.136,3.06,0,1,0.161,3.81,0,1,0.191,1.68,0,1,0.331,0.31,0,1,,,,,0.149,3.22,0,1,,,,
53152,20110627,-119.88,34.41,0.132,2.97,0,1,0.158,3.7,0,1,0.19,1.64,0,1,0.331,0.31,0,1,,,,,0.145,3.13,0,1,,,,
53152,20110628,-119.88,34.41,0.128,2.88,0,1,0.156,3.59,0,1,0.189,1.61,0,1,0.331,0.31,0,1,,,,,0.142,3.03,0,1,,,,
53152,20110629,-119.88,34.41,0.125,2.79,0,1,0.153,3.5,0,1,0.187,1.57,0,1,0.331,0.32,0,1,,,,,0.139,2.94,0,1,,,,
53152,20110630,-119.88,34.41,0.121,2.69,0,1,0.151,3.42,0,1,0.186,1.53,0,1,0.331,0.32,0,1,,,,,0.136,2.85,0,1,,,,
53152,20110701,-119.88,34.41,0.118,2.58,0,1,0.149,3.34,0,1,0.185,1.5,0,1,0.331,0.32,0,1,,,,,0.133,2.77,0,1,,,,
53152,20110702,-119.88,34.41,0.114,2.48,0,1,0.147,3.27,0,1,0.184,1.46,0,1,0.33,0.32,0,1,,,,,0.131,2.71,0,1,,,,
53152,20110703,-119.88,34.41,0.111,2.38,0,1,0.145,3.22,0,1,0.183,1.43,0,1,0.33,0.31,0,1,,,,,0.128,2.64,0,1,,,,
53152,20110704,-119.88,34.41,0.109,2.29,0,1,0.143,3.17,0,1,0.182,1.42,0,1,0.329,0.3,0,1,,,,,0.126,2.59,0,1,,,,
53152,20110705,-119.88,34.41,0.106,2.22,0,1,0.142,3.13,0,1,0.181,1.43,0,1,0.328,0.29,0,1,,,,,0.124,2.55,0,1,,,,
53152,20110706,-119.88,34.41,0.104,2.17,0,1,0.14,3.09,0,1,0.18,1.46,0,1,0.327,0.28,0,1,,,,,0.122,2.52,0,1,,,,
53152,20110707,-119.88,34.41,0.102,2.13,0,1,0.139,3.06,0,1,0.179,1.5,0,1,0.326,0.26,0,1,,,,,0.12,2.51,0,1,,,,
53152,20110708,-119.88,34.41,0.1,2.1,0,1,0.137,3.04,0,1,0.179,1.56,0,1,0.325,0.25,0,1,,,,,0.119,2.5,0,1,,,,
53152,20110709,-119.88,34.41,0.098,2.07,0,1,0.136,3.02,0,1,0.178,1.63,0,1,0.323,0.23,0,0.994,,,,,0.117,2.5,0,1,,,,
53152,20110710,-119.88,34.41,0.097,2.05,0,1,0.135,2.98,0,1,0.178,1.69,0,1,0.322,0.21,0,0.994,,,,,0.116,2.51,0,1,,,,
53152,20110711,-119.88,34.41,0.095,2.03,0,1,0.133,2.95,0,1,0.177,1.74,0,1,0.321,0.2,0,0.976,,,,,0.114,2.51,0,1,,,,
53152,20110712,-119.88,34.41,0.093,2.01,0,1,0.132,2.9,0,1,0.176,1.75,0,1,0.32,0.19,0,0.97,,,,,0.113,2.49,0,1,,,,
53152,20110713,-119.88,34.41,0.092,1.98,0,1,0.13,2.84,0,1,0.175,1.73,0,1,0.319,0.17,0,0.935,,,,,0.111,2.46,0,1,,,,
53152,20110714,-119.88,34.41,0.09,1.96,0,1,0.128,2.76,0,1,0.174,1.7,0,1,0.318,0.16,0,0.893,,,,,0.109,2.42,0,1,,,,
53152,20110715,-119.88,34.41,0.088,1.95,0,1,0.127,2.68,0,1,0.173,1.66,0,1,0.317,0.14,0,0.821,,,,,0.107,2.39,0,1,,,,
53152,20110716,-119.88,34.41,0.087,1.95,0,1,0.125,2.61,0,1,0.172,1.61,0,1,0.316,0.13,0,0.762,,,,,0.106,2.35,0,1,,,,
53152,20110717,-119.88,34.41,0.086,1.96,0,1,0.124,2.55,0,1,0.171,1.58,0,1,0.315,0.12,0,0.708,,,,,0.105,2.33,0,1,,,,
53152,20110718,-119.88,34.41,0.085,1.97,0,1,0.123,2.52,0,1,0.17,1.56,0,1,0.314,0.11,0,0.649,,,,,0.104,2.32,0,1,,,,
53152,20110719,-119.88,34.41,0.084,1.99,0,1,0.122,2.5,0,1,0.169,1.54,0,1,0.314,0.1,0,0.583,,,,,0.103,2.32,0,1,,,,
53152,20110720,-119.88,34.41,0.084,2,0,1,0.122,2.5,0,1,0.169,1.55,0,1,0.313,0.09,0,0.565,,,,,0.103,2.33,0,1,,,,
53152,20110721,-119.88,34.41,0.083,2,0,1,0.121,2.5,0,1,0.169,1.55,0,1,0.313,0.09,0,0.554,,,,,0.102,2.33,0,1,,,,
53152,20110722,-119.88,34.41,0.082,2,0,1,0.121,2.49,0,1,0.168,1.55,0,1,0.313,0.09,0,0.524,,,,,0.101,2.33,0,1,,,,
53152,20110723,-119.88,34.41,0.081,2,0,1,0.12,2.47,0,1,0.168,1.55,0,1,0.312,0.08,0,0.488,,,,,0.1,2.33,0,1,,,,
53152,20110724,-119.88,34.41,0.08,1.99,0,1,0.119,2.45,0,1,0.167,1.53,0,1,0.312,0.07,0,0.423,,,,,0.1,2.32,0,1,,,,
53152,20110725,-119.88,34.41,0.079,1.99,0,1,0.119,2.43,0,1,0.167,1.51,0,1,0.311,0.07,0,0.393,,,,,0.099,2.33,0,1,,,,
53152,20110726,-119.88,34.41,0.078,1.99,0,1,0.118,2.42,0,1,0.166,1.5,0,1,0.311,0.06,0,0.333,,,,,0.098,2.34,0,1,,,,
53152,20110727,-119.88,34.41,0.078,2,0,1,0.118,2.41,0,1,0.166,1.49,0,1,0.31,0.05,0,0.28,,,,,0.098,2.37,0,1,,,,
53152,20110728,-119.88,34.41,0.077,2.01,0,1,0.117,2.41,0,1,0.166,1.48,0,1,0.31,0.05,0,0.244,,,,,0.097,2.4,0,1,,,,
53152,20110729,-119.88,34.41,0.077,2.03,0,1,0.117,2.42,0,1,0.165,1.49,0,1,0.31,0.05,0,0.226,,,,,0.097,2.44,0,1,,,,
53152,20110730,-119.88,34.41,0.076,2.03,0,1,0.117,2.42,0,1,0.165,1.49,0,1,0.31,0.05,0,0.226,,,,,0.096,2.45,0,1,,,,
53152,20110731,-119.88,34.41,0.076,2.04,0,1,0.116,2.41,0,1,0.165,1.49,0,1,0.31,0.05,0,0.214,,,,,0.096,2.47,0,1,,,,
53152,20110801,-119.88,34.41,0.075,2.05,0,1,0.116,2.4,0,1,0.164,1.5,0,1,0.309,0.04,0,0.185,,,,,0.095,2.48,0,1,,,,
53152,20110802,-119.88,34.41,0.074,2.05,0,1,0.115,2.39,0,1,0.164,1.5,0,1,0.309,0.04,0,0.196,,,,,0.095,2.49,0,1,,,,
53152,20110803,-119.88,34.41,0.074,2.05,0,1,0.115,2.38,0,1,0.164,1.5,0,1,0.308,0.04,0,0.173,,,,,0.094,2.48,0,1,,,,
53152,20110804,-119.88,34.41,0.073,2.05,0,1,0.115,2.38,0,1,0.163,1.5,0,1,0.307,0.03,0,0.131,,,,,0.094,2.49,0,1,,,,
53152,20110805,-119.88,34.41,0.073,2.05,0,1,0.114,2.38,0,1,0.163,1.51,0,1,0.307,0.02,0,0.113,,,,,0.093,2.49,0,1,,,,
53152,20110806,-119.88,34.41,0.072,2.05,0,1,0.114,2.4,0,1,0.162,1.52,0,1,0.306,0.01,0,0.071,,,,,0.093,2.51,0,1,,,,
53152,20110807,-119.88,34.41,0.072,2.05,0,1,0.114,2.42,0,1,0.162,1.52,0,1,0.306,0.01,0,0.065,,,,,0.093,2.53,0,1,,,,
53152,20110808,-119.88,34.41,0.071,2.04,0,1,0.113,2.42,0,1,0.162,1.53,0,1,0.306,0.01,0,0.083,,,,,0.092,2.55,0,1,,,,
53152,20110809,-119.88,34.41,0.071,2.02,0,1,0.113,2.42,0,1,0.162,1.53,0,1,0.306,0.01,0,0.071,,,,,0.092,2.56,0,1,,,,
53152,20110810,-119.88,34.41,0.07,2.01,0,1,0.112,2.41,0,1,0.161,1.52,0,1,0.305,0.01,0,0.06,,,,,0.091,2.57,0,1,,,,
53152,20110811,-119.88,34.41,0.07,2.01,0,1,0.112,2.39,0,1,0.161,1.52,0,1,0.306,0.02,0,0.089,,,,,0.091,2.6,0,1,,,,
53152,20110812,-119.88,34.41,0.07,2.01,0,1,0.111,2.37,0,1,0.16,1.51,0,1,0.306,0.02,0,0.083,,,,,0.09,2.62,0,1,,,,
53152,20110813,-119.88,34.41,0.069,2.01,0,1,0.11,2.36,0,1,0.16,1.49,0,1,0.305,0.02,0,0.089,,,,,0.09,2.65,0,1,,,,
53152,20110814,-119.88,34.41,0.069,2.03,0,1,0.11,2.38,0,1,0.16,1.48,0,1,0.305,0.02,0,0.083,,,,,0.09,2.71,0,1,,,,
53152,20110815,-119.88,34.41,0.069,2.05,0,1,0.11,2.39,0,1,0.159,1.48,0,1,0.304,0.02,0,0.065,,,,,0.089,2.76,0,1,,,,
53152,20110816,-119.88,34.41,0.069,2.08,0,1,0.11,2.43,0,1,0.159,1.48,0,1,0.304,0.01,0,0.06,,,,,0.089,2.84,0,1,,,,
53152,20110817,-119.88,34.41,0.069,2.1,0,1,0.109,2.46,0,1,0.159,1.49,0,1,0.304,0.01,0,0.065,,,,,0.089,2.91,0,1,,,,
53152,20110818,-119.88,34.41,0.069,2.13,0,1,0.109,2.51,0,1,0.159,1.49,0,1,0.303,0.01,0,0.03,,,,,0.089,2.98,0,1,,,,
53152,20110819,-119.88,34.41,0.069,2.16,0,1,0.109,2.57,0,1,0.159,1.5,0,1,0.303,0.01,0,0.03,,,,,0.089,3.07,0,1,,,,
53152,20110820,-119.88,34.41,0.069,2.18,0,1,0.109,2.62,0,1,0.159,1.53,0,1,0.302,0.01,0,0.024,,,,,0.089,3.15,0,1,,,,
53152,20110821,-119.88,34.41,0.069,2.18,0,1,0.109,2.63,0,1,0.159,1.53,0,1,0.302,0.01,0,0.024,,,,,0.089,3.19,0,1,,,,
53152,20110822,-119.88,34.41,0.069,2.18,0,1,0.109,2.65,0,1,0.159,1.54,0,1,0.302,0,0,0.018,,,,,0.089,3.25,0,1,,,,
53152,20110823,-119.88,34.41,0.068,2.19,0,1,0.109,2.67,0,1,0.159,1.56,0,1,0.302,0,0,0.012,,,,,0.089,3.32,0,1,,,,
53152,20110824,-119.88,34.41,0.068,2.2,0,1,0.109,2.68,0,1,0.159,1.58,0,1,0.302,0.01,0,0.006,,,,,0.088,3.39,0,1,,,,
53152,20110825,-119.88,34.41,0.068,2.2,0,1,0.108,2.68,0,1,0.159,1.6,0,1,0.302,0.01,0,0,,,,,0.088,3.45,0,1,,,,
53152,20110826,-119.88,34.41,0.068,2.2,0,1,0.108,2.66,0,1,0.158,1.61,0,1,0.301,0.01,0,0,,,,,0.088,3.5,0,1,,,,
53152,20110827,-119.88,34.41,0.068,2.19,0,1,0.108,2.64,0,1,0.158,1.62,0,1,0.301,0.01,0,0,,,,,0.088,3.52,0,1,,,,
53152,20110828,-119.88,34.41,0.068,2.21,0,1,0.108,2.65,0,1,0.158,1.64,0,1,0.301,0.01,0,0,,,,,0.088,3.56,0,1,,,,
53152,20110829,-119.88,34.41,0.068,2.21,0,1,0.108,2.65,0,1,0.158,1.65,0,1,0.301,0.01,0,0,,,,,0.088,3.56,0,1,,,,
53152,20110830,-119.88,34.41,0.067,2.19,0,1,0.108,2.62,0,1,0.158,1.65,0,1,0.301,0.01,0,0,,,,,0.088,3.51,0,1,,,,
53152,20110831,-119.88,34.41,0.067,2.16,0,1,0.107,2.59,0,1,0.158,1.64,0,1,0.301,0.01,0,0,,,,,0.087,3.43,0,1,,,,
53152,20110901,-119.88,34.41,0.067,2.13,0,1,0.107,2.54,0,1,0.158,1.61,0,1,0.3,0,0,0,,,,,0.087,3.32,0,1,,,,
53152,20110902,-119.88,34.41,0.066,2.1,0,1,0.106,2.46,0,1,0.157,1.57,0,1,0.3,0,0,0,,,,,0.086,3.17,0,1,,,,
53152,20110903,-119.88,34.41,0.066,2.07,0,1,0.106,2.4,0,1,0.157,1.53,0,1,0.3,0.01,0,0,,,,,0.086,3.04,0,1,,,,
53152,20110904,-119.88,34.41,0.065,2.04,0,1,0.105,2.3,0,1,0.156,1.48,0,1,0.3,0.01,0,0,,,,,0.085,2.88,0,1,,,,
53152,20110905,-119.88,34.41,0.065,2.02,0,1,0.105,2.21,0,1,0.156,1.42,0,1,0.299,0.01,0,0,,,,,0.085,2.75,0,1,,,,
53152,20110906,-119.88,34.41,0.065,2.01,0,1,0.104,2.14,0,1,0.155,1.38,0,1,0.299,0.01,0,0,,,,,0.084,2.66,0,1,,,,
53152,20110907,-119.88,34.41,0.065,2.01,0,1,0.104,2.08,0,1,0.155,1.35,0,1,0.299,0.02,0,0,,,,,0.084,2.58,0,1,,,,
53152,20110908,-119.88,34.41,0.065,2.02,0,1,0.104,2.05,0,1,0.155,1.34,0,1,0.3,0.03,0,0,,,,,0.084,2.54,0,1,,,,
53152,20110909,-119.88,34.41,0.065,2.04,0,1,0.104,2.04,0,1,0.155,1.34,0,1,0.3,0.03,0,0,,,,,0.084,2.53,0,1,,,,
53152,20110910,-119.88,34.41,0.065,2.06,0,1,0.104,2.02,0,1,0.155,1.34,0,1,0.299,0.03,0,0,,,,,0.084,2.51,0,1,,,,
53152,20110911,-119.88,34.41,0.065,2.07,0,1,0.104,2,0,1,0.155,1.34,0,1,0.299,0.04,0,0,,,,,0.084,2.48,0,1,,,,
53152,20110912,-119.88,34.41,0.064,2.07,0,1,0.103,1.96,0,1,0.155,1.34,0,1,0.299,0.04,0,0,,,,,0.084,2.45,0,1,,,,
53152,20110913,-119.88,34.41,0.064,2.07,0,1,0.103,1.91,0,1,0.155,1.32,0,1,0.298,0.04,0,0,,,,,0.084,2.41,0,1,,,,
53152,20110914,-119.88,34.41,0.064,2.08,0,1,0.103,1.87,0,1,0.155,1.31,0,1,0.298,0.03,0,0,,,,,0.084,2.38,0,1,,,,
53152,20110915,-119.88,34.41,0.064,2.07,0,1,0.103,1.83,0,1,0.154,1.3,0,1,0.297,0.03,0,0,,,,,0.083,2.34,0,1,,,,
53152,20110916,-119.88,34.41,0.064,2.06,0,1,0.102,1.77,0,1,0.154,1.27,0,1,0.296,0.02,0,0,,,,,0.083,2.3,0,1,,,,
53152,20110917,-119.88,34.41,0.064,2.04,0,1,0.102,1.7,0,1,0.154,1.24,0,1,0.296,0.02,0,0,,,,,0.083,2.26,0,1,,,,
53152,20110918,-119.88,34.41,0.064,2.03,0,1,0.102,1.65,0,1,0.153,1.23,0,1,0.295,0.02,0,0,,,,,0.083,2.23,0,1,,,,
53152,20110919,-119.88,34.41,0.064,2.02,0,1,0.101,1.61,0,1,0.153,1.21,0,1,0.294,0,0,0,,,,,0.083,2.21,0,1,,,,
53152,20110920,-119.88,34.41,0.064,1.99,0,1,0.101,1.57,0,1,0.153,1.21,0,1,0.294,0,0,0,,,,,0.083,2.18,0,1,,,,
53152,20110921,-119.88,34.41,0.064,1.95,0,1,0.101,1.52,0,1,0.153,1.2,0,1,0.293,0,0,0,,,,,0.082,2.14,0,1,,,,
53152,20110922,-119.88,34.41,0.064,1.93,0,1,0.101,1.47,0,1,0.152,1.19,0,1,0.293,0,0,0,,,,,0.082,2.1,0,1,,,,
53152,20110923,-119.88,34.41,0.064,1.9,0,1,0.1,1.42,0,1,0.152,1.19,0,1,0.293,0,0,0,,,,,0.082,2.07,0,1,,,,
53152,20110924,-119.88,34.41,0.064,1.89,0,1,0.101,1.4,0,1,0.152,1.19,0,1,0.293,0,0,0,,,,,0.082,2.06,0,1,,,,